sat.trackr.live / text

‹ back to catalog

STARLINK-6223

NORAD 57057 · 2023-088K

PAYLOAD ACTIVE UNKNOWN

§ Identity

Operator
Country
US
Launch date
2023-06-22
Launch site
AFWTR
Launch vehicle
Mass (kg)
RCS (m²)

Purposes: comms

External: N2YO · Heavens-Above · Gunter

§ Orbital elements

Epoch: 2026-09-19T22:38:36.229632Z

Period
94.27 min
Inclination
43.0023°
Eccentricity
0.0001414
Mean motion
15.27577665 rev/d
Perigee alt
482.1 km
Apogee alt
484.0 km
Semi-major
6,861.2 km
B*
1.6802e-5
RAAN
93.3693°
Arg perigee
254.9204°
Mean anomaly
105.1491°
Rev number
18,004

§ Raw data

STARLINK-62231 57057U 23088K   26262.94347488  .00000200  00000+0  16802-4 0  99922 57057  43.0023  93.3693 0001414 254.9204 105.1491 15.27577665180042

JSON: /api/v1/satellites/57057 · /tle

For live sub-satellite position, see the globe view (requires WebGL).

§ Visibility from observer

Set your observer location to see the next 7 days of passes ≥ 10°. The values pass through the URL so the page stays shareable.

No JS? Fill the form by hand. The geolocation button needs JavaScript.